sat.trackr.live / text

‹ back to catalog

SHIYAN-32 02

NORAD 66378 · 2025-255C

PAYLOAD ACTIVE UNKNOWN

§ Identity

Operator
Country
PRC
Launch date
2025-11-08
Launch site
YSLA
Launch vehicle
Mass (kg)
RCS (m²)

External: N2YO · Heavens-Above · Gunter

§ Orbital elements

Epoch: 2026-05-24T22:31:08.793408Z

Period
93.43 min
Inclination
52.9919°
Eccentricity
0.0014721
Mean motion
15.41207531 rev/d
Perigee alt
432.5 km
Apogee alt
452.6 km
Semi-major
6,820.7 km
B*
2.6965e-4
RAAN
124.6157°
Arg perigee
96.5614°
Mean anomaly
263.7066°
Rev number
3,037

§ Raw data

SHIYAN-32 021 66378U 25255C   26144.93829622  .00011010  00000+0  26965-3 0  99902 66378  52.9919 124.6157 0014721  96.5614 263.7066 15.41207531 30371

JSON: /api/v1/satellites/66378 · /tle

For live sub-satellite position, see the globe view (requires WebGL).

§ Visibility from observer

Set your observer location to see the next 7 days of passes ≥ 10°. The values pass through the URL so the page stays shareable.

No JS? Fill the form by hand. The geolocation button needs JavaScript.